Date String (YYYY-MM-DD hh:mm:ss) UTC,Instrument flags,absolute air pressure of the measurement (hPa),sample flow rate (lpm),inlet stack bypass flow (lpm),air temperature of the measurement (°C),ambient temperature measured by the external sensor (°C),aerosol sample conditioner tube jacket temperature (°C),OPC LED temperature (°C),internal box temperature (°C),relative humidity of the measurement (%),span deviation,mass concentration of particles derived from Lorenz-Mie calculation of OPC scattering (μg/m³),mass concentration of particles derived from Lorenz-Mie calculation of OPC scattering (μg/m³),mass concentration of particles derived from Lorenz-Mie calculation of OPC scattering (μg/m³)
DateTimeUTC,F1_M11,P_M11,Q1_M11,Q2_M11,T1_M11,T2_M11,T3_M11,T4_M11,T5_M11,U1_M11,ZSPAN_M11,X2_M11,X0_M11,X1_M11
2023-09-24 00:00:00,SystemResetWarning,0828.6,5.00,000.00,027.9,025.4,000.0,036.3,029.4,13.5,0000.0,0003.44,0009.88,0002.53
2023-09-24 00:01:00,SystemResetWarning,0828.6,5.00,000.00,027.9,025.8,000.0,036.3,029.5,13.6,0000.0,0003.40,0009.31,0002.52
2023-09-24 00:02:00,SystemResetWarning,0828.6,5.01,000.00,028.0,026.1,000.0,036.3,029.6,13.5,0000.0,0003.39,0009.31,0002.50
2023-09-24 00:03:00,SystemResetWarning,0828.6,4.99,000.00,028.0,026.4,000.0,036.4,029.7,13.6,0000.0,0003.41,0008.80,0002.48
2023-09-24 00:04:00,SystemResetWarning,0828.6,4.99,000.00,028.1,026.7,000.0,036.4,029.8,13.6,0000.0,0003.41,0009.13,0002.49
2023-09-24 00:05:00,SystemResetWarning,0828.6,5.00,000.00,028.1,026.9,000.0,036.4,029.9,13.7,0000.0,0003.41,0009.18,0002.50
2023-09-24 00:06:00,SystemResetWarning,0828.7,5.01,000.00,028.2,027.1,000.0,036.4,029.9,13.7,0000.0,0003.41,0009.42,0002.48
2023-09-24 00:07:00,SystemResetWarning,0828.6,5.01,000.00,028.2,027.2,000.0,036.4,030.0,13.6,0000.0,0003.43,0010.11,0002.50
2023-09-24 00:08:00,SystemResetWarning,0828.7,5.00,000.00,028.3,027.4,000.0,036.5,030.1,13.5,0000.0,0003.50,0010.24,0002.54
2023-09-24 00:09:00,SystemResetWarning,0828.7,4.99,000.00,028.3,027.5,000.0,036.5,030.1,13.5,0000.0,0003.50,0010.30,0002.54
2023-09-24 00:10:00,SystemResetWarning,0828.8,4.98,000.00,028.4,027.1,000.0,036.5,030.0,13.6,0000.0,0003.49,0010.19,0002.53
2023-09-24 00:11:00,SystemResetWarning,0828.7,5.00,000.00,028.3,025.1,000.0,036.5,029.6,13.6,0000.0,0003.53,0010.49,0002.53
2023-09-24 00:12:00,SystemResetWarning,0828.7,5.01,000.00,028.2,023.9,000.0,036.4,029.4,13.7,0000.0,0003.57,0010.84,0002.53
2023-09-24 00:13:00,SystemResetWarning,0828.7,5.02,000.00,028.1,024.1,000.0,036.4,029.4,14.0,0000.0,0003.58,0011.31,0002.54
2023-09-24 00:14:00,SystemResetWarning,0828.7,4.99,000.00,028.0,024.5,000.0,036.4,029.3,14.3,0000.0,0003.60,0012.00,0002.56
2023-09-24 00:15:00,SystemResetWarning,0828.7,5.00,000.00,027.9,024.9,000.0,036.4,029.4,14.4,0000.0,0003.64,0012.23,0002.58
2023-09-24 00:16:00,SystemResetWarning,0828.8,5.00,000.00,027.9,025.3,000.0,036.4,029.5,14.4,0000.0,0003.64,0012.89,0002.58
2023-09-24 00:17:00,SystemResetWarning,0828.8,5.00,000.00,028.0,025.7,000.0,036.4,029.5,14.5,0000.0,0003.68,0013.21,0002.60
2023-09-24 00:18:00,SystemResetWarning,0828.8,5.00,000.00,028.0,026.1,000.0,036.4,029.6,14.4,0000.0,0003.68,0012.94,0002.60
2023-09-24 00:19:00,SystemResetWarning,0828.7,5.00,000.00,028.0,026.4,000.0,036.4,029.7,14.6,0000.0,0003.67,0012.64,0002.57
2023-09-24 00:20:00,SystemResetWarning,0828.8,5.00,000.00,028.1,026.7,000.0,036.4,029.8,14.5,0000.0,0003.66,0013.52,0002.56
2023-09-24 00:21:00,SystemResetWarning,0828.7,5.01,000.00,028.1,026.9,000.0,036.4,029.8,14.5,0000.0,0003.68,0013.49,0002.57
2023-09-24 00:22:00,SystemResetWarning,0828.8,5.00,000.00,028.2,027.1,000.0,036.4,029.9,14.6,0000.0,0003.70,0013.75,0002.59
2023-09-24 00:23:00,SystemResetWarning,0828.8,5.00,000.00,028.2,027.2,000.0,036.4,030.0,14.6,0000.0,0003.68,0013.55,0002.58
2023-09-24 00:24:00,SystemResetWarning,0828.9,4.99,000.00,028.3,027.4,000.0,036.5,030.1,14.4,0000.0,0003.71,0013.39,0002.57
2023-09-24 00:25:00,SystemResetWarning,0828.9,5.00,000.00,028.3,027.5,000.0,036.5,030.1,14.2,0000.0,0003.70,0013.14,0002.55
2023-09-24 00:26:00,SystemResetWarning,0828.9,4.99,000.00,028.4,027.1,000.0,036.5,030.0,14.0,0000.0,0003.69,0013.56,0002.55
2023-09-24 00:27:00,SystemResetWarning,0829.0,5.00,000.00,028.3,025.1,000.0,036.5,029.6,14.1,0000.0,0003.68,0012.43,0002.54
2023-09-24 00:28:00,SystemResetWarning,0828.8,5.01,000.00,028.1,023.9,000.0,036.4,029.4,14.3,0000.0,0003.67,0011.91,0002.54
2023-09-24 00:29:00,SystemResetWarning,0828.8,5.01,000.00,028.0,024.0,000.0,036.4,029.3,14.6,0000.0,0003.65,0011.46,0002.53
2023-09-24 00:30:00,SystemResetWarning,0828.9,5.00,000.00,027.9,024.4,000.0,036.4,029.3,14.8,0000.0,0003.61,0011.39,0002.51
2023-09-24 00:31:00,SystemResetWarning,0829.0,5.00,000.00,027.9,024.8,000.0,036.4,029.3,14.8,0000.0,0003.61,0011.05,0002.51
2023-09-24 00:32:00,SystemResetWarning,0828.9,5.01,000.00,027.9,025.3,000.0,036.3,029.4,14.4,0000.0,0003.57,0011.43,0002.49
2023-09-24 00:33:00,SystemResetWarning,0829.0,5.00,000.00,027.9,025.7,000.0,036.3,029.5,14.5,0000.0,0003.55,0011.20,0002.49
2023-09-24 00:34:00,SystemResetWarning,0829.1,5.00,000.00,028.0,026.0,000.0,036.3,029.6,14.8,0000.0,0003.56,0011.46,0002.49
2023-09-24 00:35:00,SystemResetWarning,0829.1,5.00,000.00,028.0,026.3,000.0,036.3,029.7,15.0,0000.0,0003.55,0012.65,0002.50
2023-09-24 00:36:00,SystemResetWarning,0829.1,5.01,000.00,028.1,026.6,000.0,036.3,029.7,14.9,0000.0,0003.56,0012.52,0002.52
2023-09-24 00:37:00,SystemResetWarning,0829.1,5.00,000.00,028.1,026.8,000.0,036.4,029.8,14.5,0000.0,0003.56,0012.10,0002.52
2023-09-24 00:38:00,SystemResetWarning,0829.2,5.00,000.00,028.2,027.0,000.0,036.4,029.9,13.6,0000.0,0003.56,0012.98,0002.53
2023-09-24 00:39:00,SystemResetWarning,0829.2,5.00,000.00,028.2,027.1,000.0,036.4,029.9,13.3,0000.0,0003.58,0013.94,0002.52
2023-09-24 00:40:00,SystemResetWarning,0829.3,5.00,000.00,028.2,027.3,000.0,036.4,030.0,13.3,0000.0,0003.66,0014.28,0002.51
2023-09-24 00:41:00,SystemResetWarning,0829.3,5.00,000.00,028.3,027.4,000.0,036.5,030.0,13.2,0000.0,0003.70,0014.41,0002.52
2023-09-24 00:42:00,SystemResetWarning,0829.3,4.99,000.00,028.3,026.9,000.0,036.5,030.0,13.0,0000.0,0003.75,0014.87,0002.52
2023-09-24 00:43:00,SystemResetWarning,0829.3,4.99,000.00,028.2,025.3,000.0,036.4,029.7,13.1,0000.0,0003.86,0015.62,0002.54
2023-09-24 00:44:00,SystemResetWarning,0829.3,5.00,000.00,028.2,024.8,000.0,036.4,029.6,13.1,0000.0,0003.95,0015.73,0002.57
2023-09-24 00:45:00,SystemResetWarning,0829.3,5.01,000.00,028.1,024.9,000.0,036.4,029.5,13.0,0000.0,0003.98,0015.70,0002.58
2023-09-24 00:46:00,SystemResetWarning,0829.2,4.99,000.00,028.0,025.2,000.0,036.4,029.5,12.8,0000.0,0004.02,0015.04,0002.59
2023-09-24 00:47:00,SystemResetWarning,0829.3,5.00,000.00,028.1,025.6,000.0,036.4,029.6,12.8,0000.0,0004.09,0014.45,0002.60
2023-09-24 00:48:00,SystemResetWarning,0829.2,5.01,000.00,028.1,025.9,000.0,036.4,029.6,12.6,0000.0,0004.15,0014.44,0002.60
2023-09-24 00:49:00,SystemResetWarning,0829.1,4.99,000.00,028.1,026.2,000.0,036.4,029.7,12.1,0000.0,0004.19,0014.04,0002.62
2023-09-24 00:50:00,SystemResetWarning,0829.1,4.99,000.00,028.1,026.5,000.0,036.4,029.8,12.0,0000.0,0004.26,0013.69,0002.66
2023-09-24 00:51:00,SystemResetWarning,0829.2,5.00,000.00,028.2,026.7,000.0,036.4,029.9,11.9,0000.0,0004.21,0014.09,0002.69
2023-09-24 00:52:00,SystemResetWarning,0829.2,5.01,000.00,028.2,026.9,000.0,036.5,029.9,11.9,0000.0,0004.23,0013.97,0002.72
2023-09-24 00:53:00,SystemResetWarning,0829.3,5.01,000.00,028.3,027.1,000.0,036.5,030.0,12.2,0000.0,0004.22,0013.54,0002.73
2023-09-24 00:54:00,SystemResetWarning,0829.3,5.00,000.00,028.3,027.2,000.0,036.5,030.1,12.4,0000.0,0004.19,0013.83,0002.73
2023-09-24 00:55:00,SystemResetWarning,0829.4,4.99,000.00,028.4,027.3,000.0,036.5,030.1,12.4,0000.0,0004.17,0014.48,0002.74
2023-09-24 00:56:00,SystemResetWarning,0829.4,4.99,000.00,028.4,027.4,000.0,036.6,030.2,12.3,0000.0,0004.20,0015.16,0002.74
2023-09-24 00:57:00,SystemResetWarning,0829.3,4.99,000.00,028.4,027.4,000.0,036.6,030.2,12.2,0000.0,0004.24,0014.74,0002.75
2023-09-24 00:58:00,SystemResetWarning,0829.3,5.00,000.00,028.4,026.0,000.0,036.6,030.0,12.1,0000.0,0004.21,0015.06,0002.78
2023-09-24 00:59:00,SystemResetWarning,0829.4,5.00,000.00,028.3,024.2,000.0,036.5,029.4,12.2,0000.0,0004.16,0015.66,0002.79
